weather station
Area: 4758 km2
The highest point: Sněžka (1603 m.s.l.)
Total stations: 28
Stations online: 27
Stations offline: 1
Current weather
16°C

Meteorological map - weather stations in Královéhradecký

. The meteorological maps show weather information from WARIO weather stations

Weather stations Královéhradecký

 UpdatesNameStatusTemperatureHumidityWind speedWind direction
5.8.2021 10:11Božanov14.6 °C100.0 %0.0 m/s NW
5.8.2021 10:11Červený Kostelec - Bohdašín12.9 °C100.0 %0.0 m/s NE
5.8.2021 10:10Červený Kostelec - Stolín15.2 °C95.6 %1.0 m/s SW
5.8.2021 10:11Brzice14.2 °C100.0 %4.4 m/s N
5.8.2021 10:11Chlumec nad Cidlinou IV15.9 °C99.3 %1.8 m/s S
5.8.2021 10:11Chlumec nad Cidlinou II16.1 °C92.1 %2.4 m/s N
5.8.2021 10:11Hradec Králové - Plotiště nad Labem16.1 °C98.0 %1.7 m/s N
5.8.2021 10:11Vrchlabí15.3 °C100.0 %0.7 m/s S
5.8.2021 10:11Hajnice14.1 °C98.7 %0.8 m/s NW
5.8.2021 10:11Černilov15.8 °C98.1 %0.0 m/s NE
5.8.2021 10:11Jaroměř-Josefov16.2 °C80.3 %1.3 m/s S
5.8.2021 10:11Jičín17.0 °C77.7 %1.0 m/s E
5.8.2021 10:11Kacákova Lhota18.9 °C66.1 %1.1 m/s N
5.8.2021 10:11Dvůr Králové nad Labem15.8 °C86.8 %1.7 m/s N
5.8.2021 10:11Hradec Králové16.2 °C85.4 %0.0 m/s N
5.8.2021 10:11Pecka - Horní Javoří16.5 °C84.2 %1.2 m/s N
5.8.2021 10:11Janatov16.0 °C93.0 %2.0 m/s N
5.8.2021 10:11Hradec Králové - Roudnička15.5 °C99.2 %2.2 m/s NW
5.8.2021 10:11Pohoří15.4 °C87.5 %2.2 m/s E
5.8.2021 10:11Police nad Metují14.4 °C98.1 %2.3 m/s NW
5.8.2021 10:11Zábřezí - Řečice14.2 °C93.5 %1.6 m/s N
5.8.2021 10:10Skuřina16.8 °C86.3 %0.8 m/s SW
5.8.2021 10:11Sobotka17.7 °C92.5 %0.8 m/s NW
5.8.2021 10:11Velká Jesenice15.3 °C83.7 %1.9 m/s NE
5.8.2021 10:11Vrchlabí16.3 °C86.9 %0.6 m/s SE
5.8.2021 10:11Vrchovnice15.3 °C84.2 %1.8 m/s N
5.8.2021 10:11Vysoká nad Labem16.4 °C84.9 %1.1 m/s E
8.7.2021 20:18Lužec nad Cidlinou126.9 °C %0.0 m/s W
Email notifications
Enter your email address to subscribe to notifications about news at warioweather.com. Your email address will not be used for any purpose other than sending these emails and will not be provided to any third party. The subscription can be ended at any time.
All data are only indicative. The portal administrator has no responsibility for potentially incorrect data and related consequences. Publishing or further sharing of content from www.warioweather.com is only allowed with written consent from WANET s.r.o.